User: anonymous   Login
Location: Oshawa
(43.9000°N, 78.8670°W)
Time: 18:24:30
(UTC-04:00)
Language:

CARTOSAT-1 - Orbit

View from above orbital plane
View from above orbital plane
View from above satellite
View from above satellite

Ground track
Ground track

The orbit data is extracted from the following two-line orbital elements,

1 28649U 05017A   14295.47793422  .00001507  00000-0  18969-3 0  7257
2 28649 097.8231 006.9743 0000401 028.4905 331.6342 14.83468863512363
Epoch (UTC): 22 October 2014 11:28:13
Eccentricity: 0.0000401
inclination: 97.8231°
perigee height: 618 km
apogee height: 618 km
right ascension of ascending node: 6.9743°
argument of perigee: 28.4905°
revolutions per day: 14.83468863
mean anomaly at epoch: 331.6342°
orbit number at epoch: 51236

The dashed part of the orbit path shows where the satellite is in the earth's shadow,  

DLR